Location: Most
(50.5330°N, 13.6500°E)
Time: 02:13:28
(UTC+01:00)

ISS - Visible Passes

Search period start: 29 February 2024 00:00
Search period end: 10 March 2024 00:00
Orbit: 414 x 422 km, 51.6° (Epoch: 28 February)

Date Brightness Start Highest point End Pass type
(mag) Time Alt. Az. Time Alt. Az. Time Alt. Az.
29 Feb -3.2 04:35:01 58° NE 04:35:01 58° NE 04:37:54 10° E visible
29 Feb -3.7 06:07:58 10° WNW 06:11:21 70° SSW 06:14:44 10° ESE visible
01 Mar -0.9 03:48:57 18° ENE 03:48:57 18° ENE 03:49:57 10° E visible
01 Mar -3.8 05:21:53 30° WNW 05:23:27 87° SSW 05:26:51 10° ESE visible
02 Mar -3.5 04:35:48 69° ENE 04:35:48 69° ENE 04:38:52 10° E visible
02 Mar -3.0 06:08:57 10° W 06:12:08 38° SSW 06:15:18 10° SE visible
03 Mar -1.1 03:49:45 19° E 03:49:45 19° E 03:50:51 10° E visible
03 Mar -3.5 05:22:41 27° W 05:24:13 53° SSW 05:27:31 10° SE visible
04 Mar -3.5 04:36:39 60° SSE 04:36:39 60° SSE 04:39:36 10° ESE visible
05 Mar -1.1 03:50:41 17° ESE 03:50:41 17° ESE 03:51:34 10° ESE visible
05 Mar -2.6 05:23:36 23° WSW 05:24:42 27° SSW 05:27:37 10° SSE visible
06 Mar -2.5 04:37:42 30° SSE 04:37:42 30° SSE 04:39:53 10° SE visible
07 Mar -0.7 03:51:54 10° SE 03:51:54 10° SE 03:51:58 10° SE visible
07 Mar -1.7 05:24:51 14° SW 05:24:51 14° SW 05:26:36 10° S visible
08 Mar -1.2 04:39:10 11° S 04:39:10 11° S 04:39:25 10° S visible
